Simultaneous Nadir Overpasses (SNOs) Predictions

Prediction of SNOs between GOES-16 and FY3D Satellite Orbit:

Table of predicted SNOs for the next 14.0 days since TLE Epoch: 11/16/2024
Index Date Time (GOES-16) GOES-16 Lat,Lon FY3D Lat,Lon Distance(km) Time Diff (sec)
1 11/16/2024 07:39:29 0.00, -75.18 -0.27, -74.11 123.76 80
2 11/17/2024 20:01:29 -0.00, -75.19 -0.96, -79.38 477.74 80
3 11/18/2024 19:45:27 -0.00, -75.19 0.09, -74.84 39.75 80
4 11/21/2024 07:48:37 0.00, -75.20 0.10, -75.55 40.68 80
5 11/22/2024 07:27:16 0.00, -75.21 -0.95, -71.02 477.46 80
6 11/23/2024 19:49:15 -0.00, -75.23 -0.25, -76.29 122.10 80
7 11/24/2024 19:33:13 -0.00, -75.24 0.80, -71.76 396.78 80
8 11/26/2024 07:55:05 0.00, -75.26 0.41, -77.00 199.13 80
9 11/27/2024 07:33:43 0.00, -75.28 -0.66, -72.47 319.94 80
10 11/28/2024 19:55:42 -0.00, -75.30 -0.58, -77.74 278.80 80
11 11/29/2024 19:39:40 0.00, -75.32 0.49, -73.21 240.63 80
